Printer-friendly version

IAU Minor Planet Center

Minor Planet Center

MPEC 2001-Q27: 2001 QD34

The following Minor Planet Electronic Circular may be linked-to from your own Web pages, but must not otherwise be redistributed electronically.


Read MPEC 2001-Q26 Read MPEC 2001-Q28


M.P.E.C. 2001-Q27                                Issued 2001 Aug. 20, 18:57 UT

     The Minor Planet Electronic Circulars contain information on unusual
         minor planets and routine data on comets.  They are published
   on behalf of Commission 20 of the International Astronomical Union by the
          Minor Planet Center, Smithsonian Astrophysical Observatory,
                          Cambridge, MA 02138, U.S.A.

             Prepared using the Tamkin Foundation Computer Network

                              MPC@CFA.HARVARD.EDU
          URL http://cfa-www.harvard.edu/iau/mpc.html  ISSN 1523-6714

                                   2001 QD34

Observations:
     K01Q34D* C2001 08 17.33814 23 14 11.73 +00 33 57.7          19.4        704
     K01Q34D  C2001 08 17.35023 23 14 15.74 +00 32 47.4          19.6        704
     K01Q34D  C2001 08 17.36232 23 14 19.49 +00 31 37.1          19.8        704
     K01Q34D  C2001 08 17.38657 23 14 27.33 +00 29 14.9          19.5        704
     K01Q34D  C2001 08 19.34256 23 25 04.02 -02 26 35.1          19.6        704
     K01Q34D  C2001 08 19.35520 23 25 07.43 -02 27 38.9          19.6        704
     K01Q34D  C2001 08 19.36788 23 25 10.76 -02 28 42.1          19.1        704
     K01Q34D  C2001 08 19.38060 23 25 14.10 -02 29 45.5          19.6        704
     K01Q34D  C2001 08 20.04337 23 28 23.52 -03 23 31.0                      557
     K01Q34D  C2001 08 20.04431 23 28 23.81 -03 23 34.3                      557
     K01Q34D  C2001 08 20.04523 23 28 24.01 -03 23 40.1                      557
     K01Q34D  C2001 08 20.06177 23 28 28.13 -03 24 57.2          18.5 R      046
     K01Q34D  C2001 08 20.06392 23 28 28.70 -03 25 06.8                      046
     K01Q34D  C2001 08 20.06492 23 28 28.98 -03 25 12.0                      046
     K01Q34D  C2001 08 20.06609 23 28 29.30 -03 25 17.2                      046
     K01Q34D 1C2001 08 20.37921 23 29 56.32 -03 49 30.5                      658
     K01Q34D 1C2001 08 20.38116 23 29 56.72 -03 49 40.0                      658
     K01Q34D 1C2001 08 20.38270 23 29 57.14 -03 49 47.7                      658

Observer details:
046 Klet.  Observers J. Ticha, M. Tichy, M. Kocer.  0.57-m f/5.2
    reflector + CCD.
557 Ondrejov.  Observers P. Pravec, P. Kusnirak, U. Babiakova.  0.65-m
    f/3.6 reflector + CCD.
658 National Research Council of Canada.  Observer D. D. Balam.  1.82-m
    Plaskett reflector + CCD.
704 Lincoln Laboratory ETS, New Mexico.  Observers M. Blythe, F. Shelly,
    M. Bezpalko, R. Huber, L. Manguso, S. Adams.  Measurers J. Stuart,
    R. Sayer, J. B. Evans, H. Viggh.  1.0-m f/2.15 reflector + CCD.

Orbital elements:
2001 QD34
Epoch 2001 Aug. 19.0 TT = JDT 2452140.5                 Spahr
M   9.25788              (2000.0)            P               Q
n   0.31841999     Peri.  146.89752     +0.44245838     +0.89379370
a   2.1239086      Node   149.17989     -0.85071728     +0.44416399
e   0.5100682      Incl.    8.21809     -0.28374406     +0.06205780
P   3.10           H   22.7           G   0.15
From 18 observations 2001 Aug. 17-20.

Ephemeris:
2001 QD34                a,e,i = 2.12, 0.51, 8                   q = 1.0406
Date    TT    R. A. (2000) Decl.     Delta      r     Elong.  Phase     V
2001 08 09    21 58.39   +18 52.2    0.063    1.065   143.7    34.3    18.3
2001 08 14    22 50.75   +06 45.5    0.075    1.080   151.6    26.5    18.4
2001 08 19    23 23.34   -01 56.8    0.093    1.097   155.2    22.8    18.8
2001 08 24    23 43.67   -07 49.0    0.114    1.117   157.1    20.6    19.2
2001 08 29    23 56.49   -11 47.3    0.137    1.139   158.6    18.8    19.6
2001 09 03    00 04.53   -14 30.7    0.163    1.163   160.1    17.2    20.0
2001 09 08    00 09.43   -16 23.0    0.191    1.190   161.2    15.8    20.3
2001 09 13    00 12.24   -17 38.2    0.221    1.218   161.9    14.9    20.7
2001 09 18    00 13.74   -18 25.1    0.253    1.247   161.8    14.6    21.0
2001 09 23    00 14.49   -18 49.3    0.287    1.278   160.8    14.9    21.4
2001 09 28    00 14.93   -18 55.0    0.324    1.310   159.1    15.8    21.7
2001 10 03    00 15.33   -18 45.7    0.363    1.342   156.8    17.1    22.0
2001 10 08    00 15.88   -18 24.4    0.406    1.376   154.0    18.6    22.4

Timothy B. Spahr             (C) Copyright 2001 MPC           M.P.E.C. 2001-Q27

Read MPEC 2001-Q26 Read MPEC 2001-Q28


Our Web policy. Index to the CBAT/MPC/ICQ pages.


Valid HTML 4.01!